Wind_Speed
42 43 42 42 43 44 44 42 40 38 37 36 35 35 35 35 34 33 33 34 35 35 37 38 39 41 41 41 41 40 39 38 38 37 37 36 35 33 31 29 28 26 25 24 22 20 19 18 18 17 15 14 12 11 10 9 8 8 8 7 6 4 3 4 4 4 5 5 4 3 2 2 1 1 1 1 2 2 3 3 4 4 4 5 4 4 4 3
41 42 43 44 44 45 44 42 40 38 36 36 35 35 36 36 34 33 33 33 34 35 36 37 39 40 41 41 41 41 40 39 38 38 37 36 34 33 31 29 28 26 25 23 22 20 18 17 16 16 16 14 13 12 11 10 9 8 8 7 6 4 4 4 4 4 4 4 4 3 2 1 1 1 1 1 1 1 2 3 3 4 4 5 5 5 4 3
41 42 44 46 46 46 45 42 39 38 37 36 35 34 34 35 35 34 33 33 33 34 34 35 37 39 40 41 41 41 40 40 39 38 37 36 35 33 31 30 28 26 25 24 23 21 20 19 17 16 15 14 13 12 12 11 10 9 9 7 5 5 6 5 4 4 3 3 3 2 2 1 1 1 1 1 1 0 1 2 2 3 4 5 6 6 6 5
41 42 45 48 47 47 45 43 40 38 37 35 34 33 32 33 34 33 33 33 33 33 33 33 34 37 39 40 40 40 40 40 40 39 38 36 35 33 31 30 28 27 26 24 23 22 21 20 19 17 16 15 14 14 13 13 12 11 11 7 6 7 8 7 6 5 4 3 3 2 1 0 0 1 1 1 1 1 0 1 2 2 4 5 6 6 7 7
42 43 46 49 49 47 46 44 42 39 37 36 36 35 34 33 33 33 33 33 33 33 33 32 33 34 37 39 40 40 40 40 40 39 38 37 35 33 32 30 29 28 26 25 24 23 22 21 19 19 18 17 16 15 14 14 13 13 12 9 9 10 10 9 7 6 5 4 4 3 2 1 1 1 1 1 2 2 1 1 2 2 3 3 4 5 6 7
43 43 46 50 50 48 47 46 44 42 40 39 38 38 36 35 33 33 32 33 33 33 33 32 32 33 34 37 38 39 40 39 39 38 37 36 35 33 32 31 29 28 27 26 25 25 24 23 21 21 20 19 19 17 16 16 16 15 13 12 11 12 12 11 9 8 7 6 6 5 4 3 2 3 3 2 2 2 2 2 3 3 2 2 3 4 5 6
43 44 46 50 51 49 48 48 46 44 43 42 41 40 38 36 35 34 33 33 33 33 33 33 33 33 34 35 36 38 38 38 38 37 36 35 34 33 32 31 30 29 28 27 26 26 25 24 24 23 22 22 21 19 19 19 19 17 15 14 13 14 15 13 12 10 9 8 7 6 6 5 4 4 4 4 3 3 3 3 3 4 3 2 2 2 3 4
44 45 47 50 51 50 49 49 48 47 45 44 43 41 39 38 37 35 34 34 34 33 33 33 33 33 33 34 35 36 36 36 36 37 36 36 35 34 33 32 31 30 29 28 27 27 26 26 25 24 23 23 21 20 22 22 21 18 17 17 16 16 17 15 14 13 12 10 9 8 7 7 7 6 5 5 5 4 4 4 4 4 4 3 3 2 2 3
46 46 48 50 52 51 49 50 49 48 47 45 44 42 41 39 38 37 36 35 34 34 33 33 33 33 34 34 35 34 35 35 35 36 36 36 35 34 33 32 32 31 30 29 28 28 27 27 26 24 24 24 22 22 24 24 22 20 18 19 19 19 18 17 16 15 14 13 11 10 9 8 8 8 7 6 7 6 5 5 5 5 5 4 3 3 2 2
47 47 49 50 52 52 51 51 50 49 48 46 45 43 42 40 38 37 36 36 35 34 34 33 33 33 34 34 34 34 35 35 35 36 36 35 35 34 33 32 32 31 30 29 29 28 28 27 25 25 24 24 24 24 26 25 24 22 20 22 22 21 20 19 18 17 16 15 13 12 11 10 10 10 8 7 8 8 7 6 6 6 6 5 4 4 3 3
48 48 49 51 53 54 52 52 50 50 49 47 46 44 43 41 39 38 37 36 35 34 34 34 34 34 34 34 34 34 35 36 36 35 35 35 34 34 33 32 31 30 30 29 28 28 27 26 25 25 25 25 25 26 27 27 25 24 24 25 25 22 21 20 19 18 17 16 15 14 12 11 12 12 9 7 8 9 8 7 7 7 7 7 6 5 4 4
50 49 50 52 54 55 54 53 52 51 50 49 48 46 44 42 41 39 37 36 35 34 34 34 34 34 34 34 34 34 34 35 35 35 35 34 34 33 32 32 30 30 29 28 28 27 26 26 25 26 25 24 25 27 27 26 25 25 26 26 25 23 22 21 21 20 19 18 17 16 13 13 14 13 10 9 9 10 10 9 8 9 8 8 7 7 6 5
51 51 51 53 55 56 56 55 53 52 51 50 49 47 46 44 42 40 39 37 36 35 34 34 34 34 34 33 33 34 34 35 34 34 34 34 33 32 32 31 30 29 29 28 28 27 26 26 26 25 24 24 26 27 27 26 26 27 27 26 25 24 23 22 22 21 20 19 18 17 15 15 16 14 12 11 11 11 11 10 9 9 9 9 9 8 7 6
51 52 51 53 55 57 57 58 56 54 53 52 51 49 47 46 44 42 40 39 37 35 34 34 33 34 34 33 33 33 33 34 33 33 33 33 33 32 31 30 30 29 29 28 28 27 26 26 26 26 25 26 27 27 28 28 27 27 27 26 25 25 24 23 23 22 21 20 20 18 16 17 17 14 13 13 12 12 12 11 9 10 10 9 9 8 8 7
52 52 52 53 55 57 58 59 59 57 55 54 52 50 49 47 46 44 43 41 38 37 35 34 34 34 34 33 33 32 32 32 33 33 33 33 32 32 31 30 30 29 29 28 28 27 26 26 26 26 26 26 27 28 28 28 27 27 27 26 26 26 24 25 25 23 22 21 21 19 17 18 17 15 15 15 13 12 12 11 10 10 10 10 10 9 8 7
53 53 53 53 54 57 58 59 60 59 58 57 55 52 50 49 48 47 45 43 40 39 37 36 35 34 34 32 32 32 32 32 32 32 32 32 32 31 30 30 29 29 29 28 27 27 26 26 26 26 26 26 28 29 29 28 27 26 26 26 26 26 25 25 25 23 22 22 22 21 18 18 18 17 16 16 15 13 12 11 11 11 10 10 9 8 8 7
53 54 54 54 54 56 58 59 60 60 60 59 57 55 53 52 51 49 47 45 42 40 39 37 36 35 34 32 31 31 31 32 32 32 32 32 32 31 31 30 30 29 29 28 28 27 27 26 26 26 26 27 28 29 28 28 27 26 27 27 27 26 25 25 25 24 23 23 24 23 19 18 20 19 17 16 16 13 11 12 12 11 10 10 9 8 7 7
53 55 55 54 54 55 57 59 59 60 60 60 59 58 56 55 53 50 47 46 44 41 41 39 38 37 35 33 31 31 31 31 32 32 32 32 32 32 31 31 30 30 29 28 28 27 27 26 26 26 27 27 27 27 27 28 28 28 28 28 27 26 25 25 25 24 24 24 25 23 20 19 20 19 18 17 16 14 12 12 12 11 10 10 8 8 8 8
51 54 55 55 55 55 56 57 58 59 60 60 60 59 59 57 55 52 48 48 46 43 42 41 40 39 36 33 32 31 31 32 31 31 32 32 33 32 32 31 31 30 30 29 28 27 27 26 26 26 26 26 26 26 27 29 29 28 27 27 27 26 25 25 24 24 25 25 25 24 21 19 20 19 19 19 17 14 13 12 12 11 11 10 9 9 9 9
48 52 54 55 55 55 56 56 57 58 59 60 59 59 60 58 57 53 49 49 48 45 43 42 41 40 38 35 34 33 33 32 31 31 31 32 32 32 32 32 31 30 30 29 28 27 27 26 26 25 25 26 26 27 29 30 30 28 27 27 27 26 25 25 24 24 25 26 25 25 22 19 19 19 20 20 17 14 13 13 13 12 11 10 10 10 10 10
46 49 53 54 55 55 55 56 56 57 58 59 59 59 59 58 57 54 50 50 48 46 45 44 43 42 41 38 36 35 34 33 32 31 31 31 31 31 32 32 31 31 30 30 29 28 27 26 25 25 26 26 27 28 29 30 29 28 28 28 28 27 26 25 25 24 26 26 26 26 23 19 19 20 20 21 18 14 14 14 14 14 12 11 11 11 11 11
46 47 50 53 54 55 55 55 56 56 57 58 59 59 58 58 57 55 53 51 49 47 46 45 45 44 43 41 38 37 36 34 33 32 32 31 31 31 31 32 31 31 31 30 29 28 27 26 25 26 27 27 28 29 29 29 29 29 29 29 28 27 27 26 26 26 26 27 26 26 24 19 19 20 20 22 20 16 16 16 15 15 13 13 13 12 12 12
48 48 48 50 53 54 55 55 55 55 56 57 58 58 58 58 57 57 55 53 51 49 49 48 47 46 46 44 41 39 37 36 35 34 33 32 32 32 32 31 31 31 31 30 29 28 27 26 26 27 27 27 28 29 29 29 29 30 30 29 28 28 28 29 28 27 27 28 27 27 25 20 19 21 20 22 22 18 18 17 16 16 15 15 15 14 14 14
51 50 49 48 50 52 54 55 55 55 56 56 57 58 58 58 58 58 57 56 54 53 52 51 49 49 48 46 43 42 40 38 37 36 35 34 34 33 32 32 32 32 31 30 29 29 28 28 28 27 27 28 29 29 29 30 31 31 30 30 30 29 30 30 29 28 27 29 28 27 26 21 20 22 21 22 23 20 19 18 18 18 17 17 16 15 16 15
54 53 52 50 49 49 51 54 55 55 55 56 56 57 58 58 58 58 59 59 58 56 55 54 52 51 50 48 46 45 43 41 40 39 37 36 35 34 34 33 33 32 31 31 30 30 30 30 29 28 28 28 28 29 30 31 32 32 31 31 31 31 31 31 30 29 29 30 28 27 29 24 21 22 22 22 24 22 22 20 19 19 19 19 18 18 18 17
56 54 54 53 51 49 49 51 53 55 55 56 56 57 57 58 59 59 59 60 61 59 58 56 54 53 51 50 49 47 46 44 43 41 40 39 38 36 35 34 34 33 32 31 31 31 30 30 30 29 28 27 28 29 30 31 32 32 32 32 32 32 32 32 31 31 30 30 28 28 31 27 22 21 22 23 24 24 23 22 21 21 21 21 20 20 20 19
53 54 53 54 53 51 50 49 50 52 54 55 56 57 57 57 58 59 59 60 61 60 59 58 56 54 52 52 51 49 49 46 44 44 43 41 40 39 38 37 35 35 34 33 32 31 30 30 30 29 28 28 28 29 30 32 33 33 33 33 33 33 33 34 33 33 32 31 30 29 31 31 23 19 21 25 25 24 23 23 23 23 22 23 23 22 21 20
49 51 51 52 52 52 51 51 50 50 50 52 54 55 56 57 58 58 58 60 62 61 60 59 57 55 54 54 53 51 50 48 46 46 45 43 43 41 40 39 37 37 36 34 33 32 32 32 31 30 30 30 30 31 32 32 33 34 34 34 34 34 35 35 36 35 34 33 32 30 30 34 27 18 20 25 25 23 23 23 25 25 24 24 25 24 23 22
48 50 50 51 51 50 50 50 50 50 50 50 51 52 54 55 57 57 58 60 62 61 59 59 58 57 56 55 54 52 51 50 49 48 46 46 45 43 42 41 40 40 39 37 35 34 34 34 33 32 32 32 32 33 33 33 33 34 34 35 35 36 36 37 38 37 36 35 33 31 30 34 31 20 21 25 24 23 23 24 26 26 26 27 27 26 25 25
49 49 51 51 51 50 49 49 50 51 51 50 50 50 51 53 54 57 59 61 62 61 60 60 59 59 58 57 55 53 53 52 51 50 49 49 48 46 45 44 42 42 41 39 38 37 36 35 35 34 33 33 33 33 33 33 34 34 35 35 36 37 37 38 39 38 39 36 33 32 30 33 35 24 20 24 25 24 24 25 26 26 27 28 28 28 27 27
50 50 50 51 51 51 50 50 49 49 50 51 51 51 51 52 53 56 59 59 59 61 61 60 60 59 58 58 57 55 54 53 53 53 52 51 50 48 48 47 45 44 43 42 41 39 38 37 37 36 35 34 34 34 35 35 35 35 36 36 36 37 38 39 40 40 41 38 35 34 32 33 36 26 19 22 24 24 25 26 27 28 29 30 30 30 30 31
48 50 50 50 50 50 50 51 50 49 50 50 51 52 52 52 54 55 55 55 57 61 61 60 60 59 59 58 57 57 56 55 54 53 53 53 52 50 49 48 47 45 45 44 43 41 40 40 39 39 38 38 37 37 37 37 37 37 37 37 37 38 38 38 40 41 42 40 39 38 36 35 35 29 25 24 23 25 27 27 28 29 30 31 33 34 34 33
46 48 49 49 49 50 50 51 50 50 50 50 51 52 52 54 55 52 51 52 56 59 59 59 59 58 58 58 58 58 57 57 55 54 53 53 53 52 52 50 49 48 46 45 45 44 44 43 43 42 41 41 39 39 39 38 38 38 38 38 38 39 39 39 40 42 42 42 42 42 40 37 33 31 31 28 24 24 27 27 28 30 31 33 35 36 36 36
48 46 47 48 49 49 49 50 51 51 51 52 52 52 53 54 51 48 49 52 54 55 55 57 58 59 59 59 58 58 57 57 57 56 55 55 54 54 53 53 52 51 50 49 48 48 48 47 46 45 44 43 42 41 40 40 40 40 40 40 40 40 41 41 42 42 42 43 44 45 43 39 35 33 34 33 27 25 26 29 30 31 32 34 36 37 38 38
49 49 46 46 46 47 48 49 51 52 53 54 54 55 55 52 48 48 50 50 50 51 53 54 56 57 59 59 59 58 58 58 57 57 57 57 56 55 54 53 53 52 52 52 51 50 50 49 47 47 46 44 44 44 43 43 44 43 44 43 42 41 42 43 43 43 43 44 45 46 45 41 38 37 37 37 33 29 29 32 32 33 34 35 37 40 40 39
48 49 49 46 45 46 47 47 49 51 53 55 56 57 55 51 49 49 49 48 47 47 50 54 55 55 57 58 59 59 58 58 58 58 57 56 56 56 55 54 54 53 53 52 51 51 51 50 49 48 47 46 45 46 45 45 46 46 46 45 43 43 43 44 45 44 45 46 46 44 44 42 40 40 39 39 38 35 34 34 34 35 36 37 40 41 41 41
51 49 49 50 48 47 47 48 48 50 53 54 55 54 51 50 50 49 48 48 47 47 49 51 52 53 55 55 56 57 57 57 58 58 57 57 57 56 55 55 55 54 53 52 52 52 51 51 51 49 48 47 47 47 47 47 47 48 47 45 45 46 46 46 47 47 47 48 47 44 43 41 40 41 40 39 40 40 39 38 37 38 39 41 42 42 42 43
59 54 51 52 53 51 50 51 51 52 53 53 51 49 49 50 50 49 49 49 48 48 50 50 50 50 52 52 52 53 53 55 56 56 56 56 57 56 54 54 54 53 53 52 52 53 53 53 53 52 51 50 50 49 50 49 49 50 49 48 48 49 49 49 49 49 48 49 48 45 44 43 41 41 41 40 41 42 42 42 42 42 42 43 42 42 43 44
61 62 58 55 56 56 55 54 54 55 56 54 51 48 46 46 48 49 50 50 50 50 50 51 50 49 50 50 50 50 50 51 53 54 54 55 55 54 53 53 53 52 52 52 52 52 53 53 54 54 53 52 52 52 52 51 51 51 50 50 50 50 51 51 50 50 50 50 50 48 47 45 40 39 41 42 42 43 43 44 45 45 45 45 45 45 46 46
58 63 64 61 59 59 59 59 58 59 59 57 54 51 45 42 45 49 50 49 51 51 51 51 51 49 49 49 49 49 49 49 50 51 52 53 53 54 53 52 53 52 51 52 52 51 52 54 55 56 56 56 55 54 52 50 50 50 50 51 51 50 51 52 52 52 51 52 52 52 51 48 41 39 42 43 43 44 44 46 46 47 47 47 47 47 47 47
55 59 64 64 63 62 63 64 64 62 61 59 56 54 50 45 42 44 48 49 50 51 52 52 51 51 50 49 49 49 48 49 49 49 50 51 51 52 53 52 52 52 51 52 53 53 53 55 56 57 58 58 56 54 52 50 50 51 52 53 52 52 53 53 54 54 54 53 54 54 55 50 43 41 43 44 45 46 47 48 49 50 50 50 49 49 49 49
55 57 60 63 64 64 65 67 68 66 63 60 56 55 56 55 49 45 45 49 51 52 52 52 52 52 52 52 51 50 49 49 49 49 49 49 49 50 51 51 51 51 52 51 52 51 51 52 54 57 58 57 56 55 55 55 54 53 55 55 55 56 56 56 57 57 56 56 55 56 58 53 45 43 43 45 47 49 50 51 51 52 52 52 52 52 52 51
54 56 57 59 62 64 65 66 68 69 66 63 60 57 57 58 57 53 51 51 52 53 53 52 52 53 53 53 53 53 53 52 51 50 49 48 48 48 49 50 49 50 51 51 51 50 50 51 53 56 57 57 58 58 58 58 58 57 57 57 57 58 58 58 58 57 58 59 58 59 61 54 46 44 44 46 49 50 51 51 51 52 53 53 54 55 55 54
53 54 56 57 59 61 64 65 65 66 67 66 65 63 61 59 58 58 57 56 56 55 55 54 52 52 52 52 53 54 55 55 54 53 51 50 50 49 48 49 49 49 49 50 50 51 51 52 53 54 56 58 59 61 61 61 61 60 59 57 57 58 58 59 59 59 61 61 60 64 64 55 47 46 46 47 50 52 53 52 51 53 54 55 57 58 58 58
52 53 54 56 57 59 61 63 63 64 66 67 67 66 66 64 61 59 58 58 58 57 57 57 55 53 53 53 53 54 55 55 54 55 54 53 52 51 50 50 50 50 50 49 50 51 51 52 53 54 56 59 60 60 60 59 58 58 58 56 56 55 56 58 58 59 61 60 60 64 64 55 48 48 49 50 52 54 55 54 52 54 55 57 59 60 60 59
51 52 53 54 56 58 59 60 61 62 64 67 68 67 68 67 65 63 61 60 60 59 60 60 59 57 56 54 54 55 55 54 54 54 54 54 54 53 53 52 52 53 53 53 53 53 53 54 55 55 57 58 58 58 58 56 57 57 56 56 55 55 56 56 58 60 61 60 61 63 61 57 53 51 50 50 52 55 57 56 55 55 55 57 58 59 59 59
50 51 52 51 52 55 58 59 60 61 62 64 67 68 68 68 67 66 64 61 59 59 61 62 62 61 59 57 56 56 55 55 56 55 53 53 53 53 53 54 54 54 55 55 56 57 57 57 57 56 56 56 56 58 59 58 58 57 56 56 55 55 56 57 59 59 58 60 63 59 57 58 56 52 51 50 52 55 55 55 57 57 55 55 56 56 58 59
50 50 50 50 51 52 54 56 57 58 59 62 64 66 66 67 68 68 67 64 62 60 61 63 63 61 60 58 58 58 57 57 58 57 55 55 55 55 54 53 53 54 55 56 57 58 59 59 58 57 57 56 56 57 58 59 59 59 58 58 57 57 58 58 58 57 56 60 61 56 56 59 57 53 52 51 52 53 52 53 56 57 56 56 57 58 59 60
51 50 50 50 51 52 52 53 54 56 58 59 61 62 63 64 66 67 67 67 66 64 63 63 61 60 59 59 59 59 59 59 59 58 56 54 55 56 56 54 53 52 52 53 54 55 56 57 57 56 57 56 56 56 57 59 60 61 61 60 60 60 59 59 59 58 59 61 60 57 58 59 57 54 53 52 52 53 53 53 55 56 58 60 61 61 62 62
52 52 52 51 51 51 52 52 53 55 56 58 60 61 61 62 63 64 65 66 67 66 65 64 62 62 62 63 62 61 59 58 57 56 55 53 53 55 56 56 54 52 50 47 47 50 53 54 55 55 57 58 57 56 56 57 58 59 59 59 60 61 61 61 61 60 59 59 57 56 58 60 56 53 53 53 54 56 56 56 55 56 59 62 63 63 63 63
54 54 54 54 52 52 53 52 52 54 55 57 59 59 59 61 60 60 62 63 63 64 64 63 61 62 62 64 64 63 61 59 59 58 58 57 56 56 56 57 56 56 54 51 49 50 51 52 53 53 55 56 54 55 57 56 57 58 59 59 60 62 62 61 60 58 57 56 54 55 59 59 53 49 50 52 55 56 54 53 53 55 57 60 62 62 61 61
58 58 57 57 55 54 54 53 53 54 54 54 55 55 55 56 57 57 59 60 60 60 60 59 59 60 61 63 63 63 61 61 61 61 60 60 60 60 60 60 59 59 59 58 56 54 53 53 53 54 55 54 51 52 54 55 58 61 59 57 57 57 58 58 58 58 57 55 54 54 55 52 48 48 50 51 50 50 50 50 52 54 56 58 58 59 60 60
Wind_Direction
191 191 191 193 193 191 192 190 189 190 192 192 190 188 184 183 184 186 188 187 187 186 185 184 183 182 182 181 180 179 179 178 178 177 177 177 176 174 173 172 171 170 169 168 169 170 172 172 171 171 172 172 173 179 182 185 187 191 197 197 194 178 159 169 168 154 139 128 120 116 120 130 138 127 122 88 74 59 52 47 42 39 30 35 41 45 49 39
192 192 191 192 194 195 194 191 190 193 195 194 192 188 185 184 183 184 185 185 185 186 185 184 183 183 183 183 182 182 181 181 181 181 180 179 178 177 176 176 175 174 173 173 174 176 178 181 182 181 180 179 181 187 191 195 201 203 206 209 201 190 195 203 195 170 151 136 127 118 125 132 138 159 158 125 83 60 56 47 37 38 26 30 34 31 41 39
192 193 191 192 195 197 196 193 191 191 190 188 184 183 183 183 183 183 184 184 183 184 186 185 185 185 185 184 184 184 183 183 184 184 183 182 181 181 180 180 180 179 178 178 180 181 183 187 190 192 191 190 191 196 199 203 210 211 216 215 195 206 221 223 213 193 179 169 153 131 137 131 128 171 196 178 148 77 52 45 29 38 30 31 36 29 35 38
192 193 191 191 196 198 197 194 190 187 184 182 180 181 183 183 183 183 183 184 183 184 185 186 186 186 186 186 186 186 186 186 187 186 186 186 185 184 184 184 184 184 184 184 186 188 191 194 194 198 201 201 202 205 208 212 216 217 223 219 193 213 228 228 224 211 203 201 202 179 166 152 100 194 212 205 206 225 353 17 350 30 36 30 39 36 36 39
193 193 192 192 197 199 198 194 188 184 183 183 183 184 185 185 185 184 183 184 185 185 185 186 186 187 188 188 188 188 188 189 189 189 189 189 189 188 188 189 189 189 190 191 192 195 199 201 201 202 205 208 210 212 216 218 221 223 227 223 206 219 231 233 234 230 221 218 228 231 225 243 279 278 270 245 240 241 257 300 302 346 34 25 32 39 40 42
194 193 193 194 197 200 200 196 188 184 185 185 187 187 188 188 187 187 186 185 185 186 186 187 187 188 188 189 190 190 191 191 191 191 192 192 192 193 193 194 195 196 197 198 199 201 203 205 206 208 209 212 215 217 220 222 224 226 228 228 220 225 234 235 238 239 234 231 234 239 243 253 267 279 289 289 277 266 256 264 285 305 348 7 16 27 34 40
196 194 194 196 198 199 200 197 189 185 187 188 190 190 190 190 190 190 190 188 187 187 188 189 189 189 189 190 191 191 192 192 192 193 194 196 197 197 198 199 200 201 203 204 205 208 209 210 211 212 213 216 219 220 224 225 227 228 227 230 226 226 232 233 235 238 239 239 240 242 244 256 267 273 286 292 287 282 266 252 264 283 296 312 338 2 14 23
197 195 194 196 198 200 200 198 190 187 189 190 192 193 192 192 192 193 193 192 190 189 190 191 192 191 191 192 192 193 194 194 194 196 197 198 199 201 202 203 204 205 207 208 210 212 213 215 217 217 217 220 222 222 226 228 228 228 227 230 228 226 230 232 234 237 240 241 243 246 247 254 263 268 277 283 283 284 278 265 259 265 273 283 300 319 347 360
198 196 195 196 198 200 200 198 192 189 190 192 194 195 195 195 194 195 195 194 192 191 192 194 195 195 195 193 193 194 196 196 197 198 199 200 201 202 204 205 206 208 209 211 212 214 217 219 221 221 221 223 224 223 227 230 230 229 228 231 231 229 230 231 233 235 239 242 244 247 249 252 259 264 267 276 284 284 281 276 268 263 263 265 275 288 307 328
199 198 195 195 198 200 200 198 194 191 192 194 196 197 197 197 197 197 197 196 195 194 194 195 197 198 197 195 195 196 196 196 198 199 200 201 202 202 204 205 207 208 210 211 213 215 218 221 222 223 223 224 224 224 227 230 230 228 226 230 232 230 229 229 231 233 237 241 244 246 248 253 258 259 262 275 283 283 283 281 276 266 260 262 265 271 282 299
200 199 197 195 196 199 200 200 197 193 194 196 197 199 199 198 199 199 198 198 197 196 196 196 198 200 199 197 198 199 198 197 198 199 201 202 202 203 204 205 207 208 210 211 212 214 217 219 220 221 222 223 225 226 228 230 229 227 225 229 232 231 230 230 232 233 236 239 242 245 247 253 257 257 261 273 277 282 287 285 281 273 262 260 263 264 268 278
201 200 198 196 195 197 200 202 200 196 196 198 199 200 200 200 200 200 200 200 199 198 198 198 199 200 200 199 201 201 199 199 199 199 200 202 202 203 203 204 205 207 208 210 211 213 215 217 219 222 223 223 225 227 229 230 230 228 228 230 233 233 232 232 233 234 235 238 241 244 247 252 256 257 259 265 271 279 285 286 283 276 266 259 259 261 263 266
202 201 199 197 196 196 199 202 202 200 198 200 201 202 202 202 202 201 201 202 201 200 200 201 201 201 201 202 202 201 200 200 199 199 200 201 201 202 202 203 204 206 208 210 212 213 215 217 220 223 224 225 227 228 230 230 228 229 229 230 232 233 233 233 235 235 237 239 241 243 246 250 254 257 258 261 268 274 279 284 282 273 266 259 256 257 260 263
203 202 201 198 197 196 197 200 203 202 201 201 202 203 204 204 204 203 202 203 203 203 203 203 203 202 202 202 203 201 201 200 199 199 199 200 202 202 202 203 205 207 209 211 213 215 217 220 223 226 226 226 229 230 230 230 228 228 229 230 230 232 233 234 236 236 238 241 242 242 244 250 253 256 259 260 264 270 274 277 273 265 260 255 253 254 258 261
203 203 202 200 199 197 197 199 202 203 202 203 204 204 205 206 205 205 204 204 205 206 206 206 205 204 204 203 203 202 203 203 201 201 200 201 203 203 204 204 206 208 210 213 215 217 219 222 225 227 227 227 230 231 231 231 230 229 230 230 230 231 231 234 236 236 238 241 243 241 241 250 254 255 257 258 260 265 271 271 264 256 253 251 252 251 253 256
203 203 203 202 201 199 198 199 201 203 204 204 204 205 206 207 207 206 206 205 206 207 208 209 208 206 206 206 204 203 204 205 204 204 204 204 204 205 205 206 208 209 212 214 217 219 221 223 226 227 228 228 229 230 231 231 231 230 231 230 230 231 231 234 237 237 238 241 244 243 240 246 253 254 254 257 260 264 267 266 260 253 249 248 249 250 251 254
203 203 204 204 203 201 200 199 200 203 205 206 205 205 206 208 208 208 207 206 207 208 209 211 210 209 208 207 206 205 206 207 206 206 207 207 207 207 207 208 210 212 214 216 218 220 222 224 226 227 228 228 229 229 230 230 230 230 231 231 230 231 231 233 237 238 238 240 243 244 240 243 251 253 253 254 258 263 263 258 254 251 247 243 242 244 249 255
204 204 204 204 204 204 202 201 201 202 204 207 207 207 207 208 209 210 210 209 207 209 212 212 212 212 211 208 208 209 209 210 209 208 209 209 210 210 210 210 211 213 215 217 219 221 223 224 226 228 229 230 231 231 231 231 230 230 231 232 232 231 232 232 235 238 240 241 243 244 241 241 248 251 252 253 256 260 257 252 250 246 242 241 239 238 245 255
205 204 204 205 205 205 205 204 203 202 204 206 209 209 209 210 210 211 214 212 209 211 213 213 213 214 213 211 211 211 212 213 211 211 211 211 212 212 212 213 213 215 217 219 221 223 225 227 228 230 231 231 232 231 231 231 230 230 232 234 235 234 234 236 236 238 241 243 244 245 241 239 246 251 252 252 255 257 255 249 244 238 237 237 236 238 244 254
204 205 205 205 206 206 206 206 205 204 204 205 208 210 212 213 213 214 216 214 211 212 214 215 216 217 216 214 214 214 214 214 214 213 214 214 214 214 214 215 216 217 219 220 222 224 226 228 229 231 231 231 232 230 230 232 231 231 232 234 237 236 235 237 238 238 241 243 245 246 242 237 241 248 252 254 254 255 250 242 236 235 236 237 238 242 248 255
203 205 206 206 207 207 207 207 207 206 206 205 207 209 212 214 216 217 218 216 214 214 216 217 218 219 219 217 216 216 216 216 216 216 216 216 217 217 218 218 218 219 220 222 223 225 228 230 231 231 231 231 232 232 233 234 234 233 232 234 237 239 237 237 239 239 241 244 245 246 244 237 237 242 250 255 255 251 243 236 234 236 238 241 244 249 254 260
202 203 206 207 207 208 208 208 208 208 208 207 207 208 210 213 215 217 218 216 216 217 219 220 221 221 222 221 219 219 219 218 219 219 219 219 219 220 220 220 221 221 222 224 225 227 229 231 232 232 232 232 233 234 235 236 236 236 235 234 236 240 240 240 240 240 242 245 246 247 243 235 236 240 245 252 254 249 242 237 236 240 243 246 248 253 259 266
203 203 205 207 208 209 209 209 209 209 210 209 209 209 209 211 213 215 217 217 217 218 221 223 223 224 224 223 221 221 221 221 221 221 221 221 222 222 223 223 224 224 224 226 227 229 230 231 232 234 234 234 234 235 236 237 238 238 238 238 237 239 241 241 241 241 243 245 245 246 244 234 235 243 244 248 252 251 246 241 239 242 246 250 254 259 264 270
205 204 204 205 207 209 209 210 210 210 211 211 211 210 210 211 212 213 215 217 218 219 221 223 224 225 225 224 223 222 223 222 222 222 222 222 223 224 224 225 226 226 226 227 229 230 231 232 234 236 236 236 236 237 237 238 239 240 240 241 241 240 241 242 243 245 245 246 246 246 246 237 235 243 243 245 250 250 246 242 239 243 245 250 255 259 264 269
207 205 205 205 206 207 208 210 210 211 211 212 212 212 212 212 213 214 215 217 218 219 222 223 224 225 225 225 224 224 224 224 224 224 224 225 225 226 226 227 228 229 229 229 230 231 233 235 236 237 238 238 239 239 239 239 241 242 242 242 243 243 243 244 246 247 246 247 248 250 251 243 235 241 242 243 247 247 245 242 240 243 247 250 254 258 262 267
210 208 206 206 206 207 208 209 210 211 212 213 213 214 214 214 215 215 216 218 218 219 221 223 224 225 226 226 225 225 225 225 225 226 226 227 227 228 229 229 230 231 231 231 232 233 235 237 239 240 241 241 243 243 242 242 243 244 243 244 245 246 246 246 247 248 247 248 250 253 256 252 238 236 240 241 244 244 243 243 243 245 250 254 255 257 262 267
214 209 208 208 208 208 209 209 210 212 213 214 214 214 215 215 216 217 218 219 220 220 221 223 223 225 226 227 227 226 227 227 228 228 228 229 229 230 231 231 232 233 233 233 234 236 237 239 241 243 244 244 245 246 246 245 245 245 245 245 246 247 248 248 248 248 248 249 251 252 258 260 247 231 235 240 242 243 242 243 245 247 251 256 259 260 263 267
218 212 210 211 210 209 210 211 212 212 213 214 215 215 216 216 218 218 219 221 220 219 221 222 223 224 225 227 227 227 227 228 229 230 230 231 232 232 233 233 233 235 235 235 235 236 237 239 240 241 242 243 244 245 246 247 247 247 247 246 247 248 248 249 249 249 249 250 251 252 257 261 255 230 229 240 242 242 242 242 245 248 252 257 261 263 265 268
220 216 212 211 211 211 211 212 213 213 212 213 215 216 217 217 218 219 220 221 220 219 221 222 223 224 225 227 228 228 228 228 229 231 231 232 233 233 234 234 234 236 236 236 237 237 238 240 241 241 241 243 244 246 247 248 249 249 249 249 248 249 249 250 251 251 251 250 251 254 256 262 260 239 226 238 243 242 242 243 245 248 252 256 259 263 266 268
218 218 215 213 212 212 212 212 214 215 214 214 214 215 217 218 219 220 221 221 221 221 221 222 223 224 226 227 229 229 229 229 230 231 231 233 233 233 234 235 235 236 237 238 238 238 239 241 243 243 243 244 245 247 248 249 251 251 252 252 251 251 250 251 252 253 253 252 251 254 256 261 262 248 225 233 242 242 242 244 246 248 250 254 258 262 265 267
215 216 216 214 212 212 213 213 214 215 217 217 216 215 217 218 219 221 222 222 223 224 223 222 223 224 226 228 229 230 230 231 231 232 232 234 234 235 235 236 236 237 238 238 239 239 240 241 243 244 244 244 245 247 249 250 251 252 252 253 253 253 252 251 252 253 253 253 254 255 255 256 259 256 238 233 238 243 243 243 245 247 249 253 257 260 262 264
213 214 215 214 214 214 214 215 215 215 217 219 219 218 217 218 219 222 223 223 225 227 225 225 225 226 227 228 228 230 231 232 232 233 233 234 235 236 237 237 238 238 239 241 242 242 242 242 243 245 246 246 246 247 249 250 251 252 252 253 253 254 254 253 253 253 253 254 255 256 254 253 257 262 258 244 237 241 246 245 246 248 250 253 255 258 260 262
214 215 216 215 214 216 216 215 215 216 217 218 219 220 219 220 222 224 224 224 226 227 226 226 227 228 228 229 229 229 230 231 231 232 233 234 235 236 237 238 238 239 240 240 242 242 242 242 243 244 246 247 247 248 250 251 251 252 252 252 253 254 256 256 255 254 254 254 255 256 255 254 257 262 263 257 245 242 247 250 250 250 251 253 255 257 259 261
218 218 217 216 214 215 217 217 217 217 218 218 219 220 221 223 224 225 225 225 227 229 228 228 228 228 229 229 229 230 231 232 232 232 232 233 234 236 237 238 239 239 240 239 240 242 242 243 243 244 244 245 247 247 248 248 249 250 251 251 252 254 256 257 256 256 255 255 255 256 256 257 259 261 263 263 256 249 249 251 251 251 251 253 255 257 259 260
218 220 219 218 214 214 216 218 218 218 219 219 220 221 222 224 224 224 224 226 227 229 230 230 229 229 230 230 230 230 231 232 233 233 233 234 235 236 237 238 239 240 241 242 243 244 245 245 245 246 246 246 246 246 246 247 248 249 250 251 254 256 257 258 257 257 257 256 255 256 257 259 260 261 262 264 262 256 251 250 251 253 254 255 257 258 259 261
212 218 221 219 215 213 215 216 218 220 221 221 221 223 225 224 224 225 225 226 227 228 230 230 230 230 230 230 231 231 231 232 233 234 234 235 235 236 236 238 239 240 241 242 243 244 245 246 246 246 247 247 247 247 247 248 249 250 251 254 256 256 256 256 257 257 257 256 256 256 257 259 261 262 262 264 266 263 257 254 253 255 256 256 257 259 261 263
210 213 217 219 218 216 216 216 216 218 222 224 224 226 225 224 224 225 226 227 228 228 230 231 230 230 232 232 232 232 233 233 234 235 236 236 236 236 237 238 239 240 241 241 242 242 243 243 244 244 245 245 245 246 247 247 249 251 252 254 254 254 254 254 255 256 256 257 257 257 258 259 260 262 263 264 265 266 264 261 258 256 256 255 256 258 260 263
214 212 211 214 217 217 216 216 216 217 219 223 226 227 226 226 226 226 226 227 228 229 231 233 232 231 233 233 232 233 234 234 236 237 237 238 238 238 239 240 241 241 242 242 243 244 244 244 244 244 244 245 245 245 246 248 249 251 252 252 251 252 253 254 255 256 257 259 259 258 258 257 257 261 264 264 264 265 266 265 263 260 258 258 258 258 259 261
217 215 213 211 213 216 215 215 217 219 219 220 223 225 225 227 228 229 228 228 229 230 231 233 233 233 234 234 233 233 234 234 236 237 238 239 240 240 240 241 241 242 243 243 244 245 246 246 246 246 246 246 245 246 248 250 250 250 251 251 252 253 254 255 255 256 257 258 260 259 258 257 257 260 263 264 264 265 266 266 265 265 263 261 260 259 259 259
219 218 218 215 212 213 214 215 217 220 222 222 222 222 222 223 225 227 228 228 229 231 232 233 234 234 234 235 234 234 234 234 235 236 237 238 239 240 239 240 241 241 242 243 243 244 245 246 246 246 246 246 247 248 249 249 249 249 250 250 251 253 254 255 255 256 256 257 259 260 258 257 257 259 261 263 264 265 265 265 265 265 265 264 263 262 261 261
223 220 220 221 217 213 212 215 217 219 221 222 223 223 221 220 220 222 224 226 228 231 232 233 233 234 234 235 235 235 234 234 234 235 236 236 237 238 238 238 239 240 240 241 242 243 244 245 246 246 246 247 248 248 247 246 246 247 248 249 250 251 252 253 253 254 255 255 256 258 259 258 257 257 260 263 265 266 266 266 266 266 267 267 267 266 266 265
227 224 222 223 223 219 214 213 216 218 220 221 222 223 223 222 222 222 224 226 228 229 231 232 233 233 234 234 234 234 235 235 234 234 234 235 235 236 236 236 237 237 238 239 240 241 242 244 244 245 246 247 247 247 246 246 245 245 246 248 249 249 250 251 252 254 254 253 254 255 258 260 258 258 260 263 265 266 266 267 268 269 270 270 270 270 270 269
227 226 225 225 226 225 221 216 214 217 221 223 223 222 222 223 224 225 226 228 230 231 231 233 234 234 234 234 233 233 234 235 235 233 233 233 233 234 235 235 235 236 236 237 238 238 238 240 242 244 245 245 245 246 247 247 247 247 248 249 249 250 251 250 251 251 251 252 254 254 257 261 261 261 262 263 264 264 264 266 268 270 272 273 273 273 272 272
226 227 227 227 227 227 226 222 218 217 219 223 223 222 222 223 224 225 226 228 230 233 234 234 234 236 236 236 236 235 235 235 235 235 234 234 234 234 235 235 236 236 236 237 238 238 239 240 241 242 244 244 245 246 247 248 249 250 250 250 250 251 251 250 250 250 250 253 255 256 258 262 264 263 263 262 263 264 264 265 266 267 269 271 272 273 273 274
227 227 227 228 228 229 228 226 224 221 220 220 222 222 223 225 226 227 228 229 228 230 233 234 234 235 237 238 238 238 237 236 236 237 236 236 236 235 235 236 237 237 237 237 238 239 239 240 240 240 242 244 246 248 249 250 252 252 252 252 251 251 251 251 252 252 253 256 257 258 261 263 261 260 260 260 261 262 263 264 264 265 266 268 270 272 274 275
228 228 228 228 229 230 229 228 227 226 224 222 222 222 223 225 225 226 228 229 229 229 230 232 232 233 234 236 239 241 241 239 239 238 237 237 238 238 238 238 239 240 241 240 240 240 239 240 241 241 242 245 246 248 248 249 250 251 251 251 251 250 250 250 251 252 256 259 258 258 262 263 260 257 257 258 260 261 262 263 264 264 264 266 268 270 273 274
229 229 229 230 230 230 230 229 229 228 227 226 225 224 225 225 224 224 224 225 227 228 230 231 231 232 232 232 235 238 239 240 240 239 237 237 238 239 239 239 240 242 242 243 243 243 242 242 243 243 244 245 247 249 248 248 249 251 251 251 252 252 252 251 252 254 258 259 258 260 264 264 260 257 255 256 258 260 261 263 264 265 266 266 268 269 269 270
230 230 230 231 232 231 231 231 231 230 229 229 227 227 227 227 226 226 225 224 223 224 227 229 231 232 232 232 233 234 235 237 238 238 238 238 239 239 239 240 241 242 244 245 245 245 245 245 245 245 246 246 248 251 252 252 253 253 253 253 254 254 254 255 255 257 258 259 260 261 261 262 261 258 256 256 259 262 262 261 262 264 266 267 267 267 267 267
229 231 231 232 232 232 232 231 231 230 230 230 230 229 229 230 229 228 228 228 227 226 226 228 229 231 231 232 232 233 233 234 237 238 238 239 240 240 239 240 241 242 244 246 248 248 248 247 246 246 246 245 245 248 251 253 254 255 255 255 255 255 256 257 258 258 258 259 261 261 261 262 262 262 260 257 259 264 263 261 260 262 264 267 267 267 267 268
229 230 231 232 232 233 233 232 231 231 230 230 230 230 231 231 231 231 231 231 231 231 230 230 229 231 232 233 234 234 234 235 236 237 238 238 238 239 239 239 240 240 240 242 244 245 246 246 246 246 246 245 243 245 247 248 251 253 253 254 256 257 258 258 259 260 260 262 264 265 263 262 262 265 264 259 258 261 263 262 262 262 264 267 268 268 268 268
229 230 231 232 231 232 233 232 232 232 232 231 231 231 231 232 232 233 234 234 234 234 234 233 232 233 234 236 236 237 238 238 238 238 239 239 239 238 237 237 237 237 236 236 238 239 241 243 243 243 244 245 245 246 246 245 245 245 246 251 257 260 261 262 262 261 262 264 265 264 264 263 263 264 264 260 258 259 261 263 263 263 264 265 265 267 268 269
230 231 232 232 232 231 232 233 233 233 233 233 234 233 233 233 232 232 233 234 234 234 235 234 234 234 234 236 237 239 240 240 239 239 239 240 240 240 239 237 236 235 234 234 235 236 238 240 241 241 242 244 245 244 243 242 241 241 246 252 257 258 260 261 262 262 263 263 261 260 262 263 261 259 259 259 258 258 259 260 262 262 261 260 262 267 270 270
Height
5737 5740 5743 5747 5750 5753 5757 5759 5763 5766 5769 5771 5774 5777 5780 5782 5785 5788 5791 5793 5796 5799 5802 5804 5807 5809 5812 5815 5817 5820 5823 5827 5830 5833 5835 5837 5840 5842 5844 5845 5847 5848 5850 5852 5854 5856 5858 5860 5862 5863 5865 5866 5868 5869 5871 5872 5874 5875 5876 5877 5878 5879 5880 5880 5881 5882 5882 5883 5884 5884 5885 5885 5886 5886 5886 5887 5887 5887 5887 5887 5887 5887 5886 5886 5886 5886 5886 5886
5736 5739 5741 5745 5748 5752 5755 5758 5761 5764 5767 5770 5773 5776 5779 5782 5784 5787 5790 5792 5795 5798 5801 5803 5806 5809 5811 5814 5816 5819 5823 5826 5829 5832 5834 5836 5839 5841 5843 5845 5846 5848 5849 5851 5853 5855 5858 5860 5861 5862 5864 5865 5867 5868 5870 5871 5873 5874 5875 5876 5877 5879 5879 5880 5881 5882 5882 5882 5883 5884 5885 5885 5886 5886 5886 5887 5887 5887 5888 5888 5887 5887 5887 5886 5886 5886 5886 5886
5734 5737 5740 5743 5746 5749 5753 5757 5760 5763 5766 5768 5771 5774 5777 5780 5783 5786 5789 5791 5794 5797 5800 5802 5805 5808 5811 5813 5816 5819 5822 5825 5828 5830 5833 5835 5837 5839 5841 5843 5845 5847 5849 5850 5852 5854 5856 5858 5860 5862 5863 5865 5866 5868 5869 5870 5872 5873 5874 5875 5877 5878 5878 5879 5881 5881 5882 5882 5883 5884 5884 5885 5885 5886 5886 5887 5887 5887 5888 5888 5887 5887 5887 5887 5887 5886 5886 5886
5732 5735 5738 5741 5744 5747 5751 5755 5758 5761 5764 5767 5770 5773 5776 5779 5782 5785 5788 5790 5793 5796 5799 5801 5804 5807 5810 5813 5816 5818 5821 5824 5826 5829 5832 5834 5836 5838 5840 5842 5844 5846 5848 5850 5852 5853 5855 5857 5859 5861 5862 5864 5865 5867 5868 5869 5871 5872 5873 5875 5876 5877 5877 5878 5880 5881 5881 5881 5882 5883 5884 5884 5885 5885 5886 5886 5887 5887 5888 5888 5887 5887 5887 5887 5887 5886 5886 5886
5730 5733 5736 5739 5743 5746 5749 5753 5756 5759 5763 5766 5769 5772 5776 5779 5781 5784 5786 5789 5792 5795 5798 5800 5803 5806 5809 5812 5815 5818 5820 5822 5825 5828 5830 5832 5834 5837 5839 5841 5843 5845 5847 5849 5851 5853 5855 5856 5858 5860 5861 5863 5864 5866 5867 5868 5870 5871 5872 5874 5875 5876 5876 5877 5878 5879 5880 5881 5881 5882 5884 5884 5884 5885 5885 5886 5886 5887 5887 5887 5887 5887 5887 5887 5887 5887 5886 5886
5728 5731 5734 5737 5740 5744 5748 5751 5754 5757 5761 5765 5768 5772 5775 5778 5780 5783 5786 5788 5791 5794 5797 5799 5802 5805 5808 5811 5814 5816 5819 5821 5824 5826 5829 5831 5833 5835 5837 5840 5842 5844 5846 5848 5850 5851 5853 5855 5857 5858 5860 5862 5863 5864 5866 5867 5868 5870 5871 5873 5874 5875 5875 5876 5877 5878 5879 5880 5881 5882 5883 5883 5884 5884 5884 5885 5885 5886 5887 5887 5887 5887 5887 5887 5887 5887 5887 5886
5726 5729 5732 5735 5739 5742 5746 5749 5752 5756 5760 5763 5767 5770 5773 5776 5779 5782 5785 5787 5790 5793 5796 5798 5801 5804 5807 5809 5812 5815 5817 5820 5822 5825 5827 5829 5832 5834 5836 5838 5841 5843 5845 5847 5848 5850 5852 5854 5856 5857 5859 5860 5862 5863 5864 5865 5867 5869 5870 5871 5873 5874 5874 5875 5876 5877 5878 5879 5880 5881 5882 5882 5883 5883 5884 5884 5885 5885 5886 5887 5887 5887 5887 5887 5887 5887 5886 5886
5723 5726 5730 5733 5737 5740 5744 5747 5750 5754 5758 5762 5766 5769 5772 5775 5778 5781 5784 5786 5789 5792 5795 5797 5800 5803 5805 5808 5811 5813 5816 5818 5821 5823 5825 5828 5830 5833 5835 5837 5839 5841 5843 5845 5847 5849 5851 5852 5854 5856 5858 5859 5861 5863 5862 5863 5865 5867 5869 5870 5871 5872 5873 5874 5875 5876 5877 5878 5879 5880 5881 5882 5882 5882 5883 5883 5883 5884 5885 5886 5886 5886 5886 5886 5886 5887 5886 5886
5720 5723 5727 5731 5734 5738 5742 5746 5749 5752 5756 5760 5764 5767 5770 5774 5777 5780 5782 5785 5788 5790 5793 5796 5799 5801 5804 5806 5809 5812 5814 5816 5819 5821 5824 5826 5828 5831 5833 5835 5837 5840 5842 5844 5846 5847 5849 5851 5853 5855 5857 5858 5859 5861 5861 5862 5864 5866 5868 5868 5869 5871 5872 5873 5874 5875 5875 5876 5878 5879 5880 5881 5881 5881 5882 5882 5882 5883 5884 5885 5885 5885 5886 5886 5886 5886 5886 5886
5717 5720 5724 5728 5732 5736 5740 5743 5747 5750 5754 5758 5762 5766 5769 5772 5775 5778 5781 5784 5786 5789 5791 5795 5797 5800 5802 5805 5808 5809 5811 5814 5817 5820 5822 5824 5826 5829 5831 5833 5836 5838 5840 5842 5844 5845 5847 5849 5851 5853 5855 5856 5858 5859 5859 5861 5863 5865 5866 5866 5867 5868 5870 5872 5872 5873 5874 5875 5876 5877 5878 5879 5880 5880 5881 5882 5882 5882 5882 5883 5884 5884 5885 5885 5885 5885 5886 5886
5713 5717 5721 5725 5729 5733 5737 5741 5745 5748 5752 5756 5760 5764 5767 5770 5773 5776 5779 5782 5784 5787 5790 5793 5796 5798 5801 5804 5806 5807 5809 5812 5815 5818 5820 5823 5825 5827 5829 5832 5834 5836 5838 5840 5842 5843 5845 5847 5849 5850 5852 5854 5855 5856 5857 5859 5861 5863 5863 5863 5864 5867 5869 5870 5871 5872 5873 5874 5875 5876 5877 5878 5878 5879 5880 5881 5881 5881 5881 5882 5882 5883 5884 5884 5884 5884 5885 5885
5710 5714 5718 5722 5726 5730 5734 5738 5742 5746 5750 5754 5758 5761 5765 5768 5771 5774 5777 5780 5783 5785 5788 5791 5794 5796 5799 5802 5803 5805 5808 5810 5813 5816 5818 5821 5823 5825 5827 5830 5832 5834 5836 5838 5839 5841 5843 5845 5847 5848 5850 5852 5853 5854 5855 5857 5859 5860 5861 5862 5863 5865 5867 5868 5869 5870 5871 5872 5873 5874 5876 5877 5877 5878 5879 5880 5880 5880 5880 5880 5881 5881 5882 5883 5883 5883 5884 5884
5708 5711 5715 5719 5722 5727 5731 5735 5739 5743 5747 5751 5755 5759 5762 5765 5768 5772 5775 5778 5780 5783 5786 5789 5792 5794 5797 5799 5801 5804 5807 5809 5811 5814 5816 5819 5821 5823 5826 5828 5830 5832 5834 5835 5837 5839 5841 5843 5844 5846 5848 5850 5850 5852 5853 5855 5856 5857 5858 5860 5862 5863 5865 5866 5867 5869 5870 5871 5872 5873 5875 5875 5875 5876 5878 5878 5879 5879 5879 5879 5880 5880 5881 5881 5882 5882 5883 5883
5705 5708 5712 5715 5719 5723 5728 5732 5736 5740 5744 5748 5752 5756 5760 5763 5766 5769 5772 5775 5778 5781 5784 5787 5790 5792 5795 5797 5800 5803 5805 5807 5809 5811 5814 5816 5819 5821 5823 5825 5827 5829 5831 5833 5835 5837 5839 5840 5842 5843 5846 5847 5848 5849 5850 5852 5853 5854 5856 5858 5860 5861 5863 5864 5865 5867 5868 5869 5870 5872 5873 5873 5874 5875 5876 5877 5877 5877 5878 5878 5878 5879 5879 5880 5880 5881 5881 5882
5701 5705 5709 5712 5716 5720 5724 5728 5733 5737 5741 5745 5749 5753 5757 5760 5763 5766 5769 5773 5776 5779 5782 5785 5787 5790 5793 5796 5798 5801 5803 5805 5807 5809 5812 5814 5816 5819 5821 5823 5825 5827 5829 5831 5833 5835 5836 5838 5839 5841 5843 5845 5846 5847 5848 5849 5851 5852 5854 5856 5858 5859 5861 5862 5863 5865 5866 5867 5868 5869 5871 5871 5872 5874 5874 5875 5875 5876 5876 5876 5877 5877 5877 5878 5879 5879 5880 5880
5698 5702 5706 5710 5713 5717 5720 5725 5729 5733 5738 5742 5746 5750 5754 5757 5760 5763 5767 5770 5773 5776 5779 5782 5785 5788 5791 5793 5796 5799 5801 5803 5805 5807 5810 5812 5814 5816 5819 5821 5822 5824 5826 5828 5830 5832 5834 5836 5837 5839 5841 5842 5843 5844 5845 5847 5849 5851 5852 5854 5855 5857 5858 5860 5861 5863 5864 5865 5865 5867 5869 5870 5870 5871 5872 5873 5874 5874 5875 5875 5875 5875 5876 5877 5877 5878 5878 5879
5694 5698 5702 5706 5710 5714 5717 5721 5725 5730 5734 5738 5742 5747 5750 5754 5757 5760 5764 5767 5770 5774 5777 5780 5783 5785 5788 5791 5795 5797 5799 5801 5803 5805 5807 5810 5812 5814 5816 5818 5820 5822 5824 5826 5828 5830 5831 5833 5835 5836 5838 5839 5840 5842 5843 5845 5847 5848 5849 5851 5852 5854 5856 5858 5858 5860 5862 5862 5863 5864 5867 5868 5868 5869 5870 5871 5872 5873 5873 5873 5873 5874 5874 5875 5876 5876 5877 5877
5691 5695 5699 5703 5707 5711 5714 5718 5722 5726 5730 5735 5739 5743 5746 5750 5754 5758 5761 5764 5767 5771 5774 5777 5780 5783 5786 5790 5793 5795 5796 5798 5800 5803 5805 5807 5810 5812 5813 5815 5817 5819 5822 5824 5825 5827 5829 5830 5832 5834 5835 5837 5838 5841 5842 5843 5844 5845 5847 5848 5850 5852 5854 5855 5856 5858 5859 5860 5860 5862 5865 5866 5866 5867 5868 5869 5870 5871 5872 5872 5872 5872 5873 5873 5874 5875 5875 5876
5688 5692 5695 5700 5704 5708 5711 5715 5719 5723 5727 5732 5736 5740 5744 5747 5750 5754 5758 5762 5765 5768 5771 5774 5778 5781 5784 5788 5790 5792 5794 5796 5798 5801 5803 5805 5807 5809 5811 5813 5815 5817 5819 5821 5823 5825 5827 5828 5830 5831 5833 5835 5837 5839 5840 5840 5842 5843 5845 5847 5848 5850 5851 5853 5855 5856 5857 5857 5858 5860 5862 5864 5864 5865 5866 5867 5868 5869 5870 5870 5871 5871 5871 5872 5873 5873 5874 5874
5684 5688 5692 5696 5700 5704 5708 5712 5716 5720 5724 5729 5733 5737 5740 5744 5748 5751 5755 5759 5761 5765 5768 5772 5775 5778 5781 5785 5787 5789 5791 5793 5796 5798 5800 5802 5804 5806 5808 5810 5813 5815 5817 5819 5821 5823 5824 5826 5828 5829 5831 5832 5834 5835 5836 5837 5839 5841 5843 5845 5845 5847 5849 5851 5852 5854 5854 5855 5856 5857 5860 5862 5863 5863 5863 5864 5866 5868 5868 5869 5869 5869 5870 5870 5871 5871 5872 5873
5681 5685 5689 5693 5697 5701 5705 5709 5713 5717 5721 5725 5729 5733 5737 5742 5746 5749 5753 5755 5758 5762 5765 5768 5772 5774 5778 5781 5784 5786 5788 5791 5793 5795 5798 5800 5802 5804 5806 5808 5810 5812 5814 5816 5818 5820 5822 5823 5825 5827 5828 5829 5831 5832 5834 5835 5838 5840 5841 5842 5843 5844 5846 5848 5849 5851 5851 5852 5854 5855 5857 5860 5861 5861 5861 5862 5864 5866 5866 5867 5867 5868 5868 5869 5869 5869 5870 5870
5677 5681 5685 5689 5694 5697 5702 5706 5710 5714 5718 5722 5726 5730 5734 5738 5742 5746 5749 5752 5755 5759 5762 5765 5768 5771 5774 5778 5781 5783 5786 5788 5790 5793 5795 5797 5800 5801 5803 5806 5808 5809 5811 5814 5816 5817 5819 5821 5822 5823 5825 5827 5828 5830 5832 5833 5835 5837 5838 5840 5841 5842 5843 5845 5846 5848 5849 5850 5851 5852 5854 5858 5859 5859 5860 5860 5861 5864 5864 5865 5866 5866 5867 5867 5867 5868 5868 5868
5674 5678 5682 5686 5690 5694 5698 5702 5706 5711 5714 5718 5723 5726 5730 5734 5737 5741 5744 5747 5750 5754 5758 5761 5765 5767 5770 5774 5778 5780 5783 5785 5787 5790 5792 5795 5797 5798 5801 5803 5804 5806 5809 5811 5813 5815 5817 5818 5819 5821 5823 5825 5826 5827 5829 5831 5833 5834 5836 5837 5839 5840 5841 5841 5843 5845 5846 5847 5848 5849 5851 5855 5857 5857 5858 5858 5859 5861 5862 5863 5864 5864 5865 5865 5865 5866 5866 5866
5671 5675 5678 5682 5686 5690 5694 5698 5702 5706 5710 5715 5718 5722 5726 5730 5733 5736 5739 5742 5746 5750 5753 5756 5760 5763 5766 5770 5775 5777 5779 5782 5784 5786 5789 5791 5793 5795 5798 5800 5801 5803 5806 5808 5810 5812 5813 5815 5816 5818 5820 5822 5823 5825 5827 5828 5830 5831 5833 5835 5836 5837 5837 5838 5840 5842 5843 5844 5845 5847 5848 5852 5854 5854 5856 5856 5856 5859 5860 5861 5862 5862 5863 5863 5863 5864 5863 5864
5667 5671 5675 5679 5683 5686 5690 5694 5698 5702 5706 5710 5714 5718 5722 5725 5729 5732 5735 5738 5741 5745 5748 5752 5756 5759 5763 5767 5771 5774 5776 5779 5781 5783 5786 5788 5790 5792 5794 5796 5798 5800 5803 5805 5807 5809 5810 5812 5814 5815 5817 5819 5821 5822 5824 5826 5827 5828 5831 5832 5833 5834 5835 5836 5838 5839 5840 5841 5843 5844 5844 5848 5852 5852 5853 5854 5854 5856 5857 5858 5860 5860 5861 5861 5861 5862 5861 5861
5664 5667 5671 5675 5679 5683 5686 5690 5694 5698 5702 5706 5709 5714 5718 5721 5724 5727 5730 5732 5735 5739 5744 5749 5753 5756 5760 5763 5766 5770 5772 5774 5777 5780 5782 5784 5787 5789 5791 5793 5795 5797 5799 5801 5803 5806 5808 5809 5811 5813 5815 5817 5818 5820 5821 5823 5824 5825 5827 5829 5830 5831 5832 5833 5835 5836 5837 5839 5841 5842 5841 5843 5848 5850 5850 5851 5851 5853 5854 5856 5857 5858 5858 5859 5859 5859 5859 5859
5661 5663 5667 5671 5675 5679 5683 5687 5691 5695 5698 5701 5705 5709 5713 5717 5719 5722 5725 5727 5730 5736 5740 5744 5749 5753 5757 5758 5762 5766 5768 5771 5774 5776 5778 5781 5783 5785 5787 5790 5792 5794 5796 5798 5800 5803 5805 5807 5808 5810 5812 5814 5816 5816 5818 5819 5821 5822 5824 5826 5827 5828 5829 5830 5831 5833 5834 5836 5838 5839 5838 5839 5844 5848 5848 5848 5849 5850 5852 5854 5854 5855 5856 5856 5856 5856 5856 5856
5657 5660 5663 5667 5670 5675 5679 5683 5688 5691 5694 5697 5701 5704 5708 5711 5713 5717 5719 5720 5725 5732 5736 5740 5746 5749 5752 5753 5757 5761 5764 5768 5770 5771 5775 5777 5779 5782 5784 5786 5788 5790 5792 5795 5797 5800 5801 5803 5805 5807 5809 5810 5812 5813 5814 5816 5817 5819 5821 5822 5823 5825 5826 5827 5828 5829 5831 5833 5834 5837 5837 5835 5838 5845 5846 5845 5846 5848 5850 5851 5851 5852 5853 5853 5853 5853 5853 5853
5653 5656 5660 5663 5667 5671 5675 5679 5683 5686 5688 5692 5696 5699 5702 5705 5707 5711 5712 5715 5722 5728 5732 5737 5741 5744 5746 5749 5753 5757 5760 5763 5765 5767 5771 5772 5774 5778 5780 5782 5785 5786 5788 5791 5794 5796 5798 5799 5801 5804 5805 5807 5808 5809 5811 5812 5813 5815 5817 5818 5820 5821 5822 5823 5824 5826 5827 5829 5831 5834 5835 5832 5832 5840 5844 5842 5844 5846 5848 5848 5848 5849 5850 5850 5850 5850 5850 5850
5649 5653 5657 5660 5664 5668 5672 5675 5678 5680 5683 5687 5690 5694 5697 5699 5702 5703 5705 5712 5720 5725 5728 5733 5736 5739 5742 5745 5749 5752 5756 5758 5760 5763 5766 5767 5770 5773 5775 5777 5780 5782 5784 5787 5789 5792 5794 5796 5798 5800 5802 5804 5805 5806 5807 5809 5810 5812 5813 5814 5816 5817 5819 5820 5821 5823 5824 5825 5828 5830 5833 5831 5827 5833 5841 5841 5841 5843 5844 5845 5846 5846 5847 5846 5846 5847 5847 5847
5646 5650 5653 5657 5660 5664 5668 5670 5673 5676 5679 5682 5685 5688 5690 5693 5695 5696 5702 5714 5719 5720 5724 5728 5731 5734 5738 5741 5745 5748 5751 5753 5755 5758 5761 5763 5765 5768 5770 5773 5776 5778 5780 5783 5785 5788 5790 5792 5794 5795 5798 5800 5801 5802 5803 5805 5806 5808 5809 5810 5812 5813 5815 5816 5818 5819 5820 5822 5825 5826 5829 5828 5823 5828 5837 5839 5839 5841 5841 5842 5842 5842 5843 5843 5843 5843 5843 5842
5642 5645 5649 5653 5656 5660 5664 5666 5669 5672 5674 5677 5680 5681 5684 5686 5687 5693 5705 5714 5713 5713 5720 5724 5727 5731 5734 5736 5739 5742 5745 5747 5750 5753 5756 5758 5760 5763 5766 5769 5772 5774 5777 5779 5782 5784 5786 5788 5790 5791 5793 5795 5797 5798 5799 5801 5802 5803 5805 5806 5807 5808 5810 5813 5814 5815 5816 5819 5821 5821 5824 5825 5822 5825 5831 5834 5837 5838 5837 5838 5839 5839 5840 5840 5839 5839 5839 5838
5637 5641 5645 5649 5653 5657 5660 5663 5666 5667 5669 5672 5673 5676 5679 5679 5684 5696 5705 5707 5705 5708 5715 5720 5723 5726 5727 5730 5733 5736 5738 5741 5744 5748 5750 5752 5755 5758 5760 5764 5768 5770 5773 5776 5777 5779 5781 5783 5785 5787 5789 5791 5793 5794 5796 5797 5797 5799 5801 5802 5803 5804 5806 5808 5810 5811 5813 5815 5816 5817 5819 5820 5821 5823 5825 5828 5834 5835 5834 5835 5835 5835 5836 5835 5835 5834 5834 5834
5633 5637 5641 5645 5649 5653 5656 5659 5661 5662 5664 5666 5668 5670 5671 5675 5686 5696 5698 5698 5700 5705 5711 5715 5717 5718 5720 5723 5727 5730 5733 5735 5739 5742 5744 5746 5749 5752 5755 5759 5762 5765 5767 5769 5771 5773 5775 5777 5780 5782 5784 5786 5788 5790 5791 5792 5793 5794 5796 5797 5799 5801 5802 5804 5805 5806 5809 5811 5811 5812 5814 5816 5819 5821 5820 5822 5828 5832 5832 5831 5830 5831 5831 5831 5830 5829 5829 5829
5628 5632 5636 5640 5646 5649 5653 5655 5656 5658 5659 5661 5662 5663 5666 5676 5686 5689 5689 5692 5696 5701 5706 5708 5709 5712 5714 5717 5721 5724 5727 5730 5733 5736 5738 5741 5745 5748 5751 5754 5757 5760 5762 5764 5767 5769 5770 5772 5776 5777 5779 5782 5783 5784 5785 5786 5788 5789 5790 5793 5796 5798 5799 5798 5799 5802 5804 5805 5806 5808 5809 5812 5815 5817 5817 5817 5822 5826 5827 5826 5826 5827 5827 5827 5825 5823 5824 5824
5625 5628 5632 5636 5641 5644 5647 5650 5652 5654 5654 5655 5656 5658 5667 5677 5680 5681 5684 5688 5692 5696 5698 5699 5702 5706 5708 5712 5716 5719 5723 5726 5727 5729 5732 5737 5740 5743 5746 5749 5752 5755 5757 5760 5762 5764 5765 5767 5770 5772 5774 5777 5778 5779 5780 5782 5783 5784 5786 5790 5793 5794 5793 5793 5794 5797 5798 5798 5801 5804 5806 5809 5811 5812 5813 5814 5815 5819 5820 5821 5823 5823 5822 5821 5819 5819 5819 5820
5621 5624 5628 5631 5635 5638 5642 5645 5648 5649 5648 5649 5651 5657 5667 5672 5673 5676 5680 5683 5687 5690 5690 5692 5697 5700 5703 5707 5711 5714 5718 5721 5721 5724 5728 5731 5733 5738 5742 5745 5747 5749 5752 5755 5755 5757 5759 5760 5763 5766 5768 5770 5772 5773 5774 5777 5778 5779 5783 5787 5787 5786 5787 5787 5788 5791 5791 5792 5796 5800 5802 5805 5807 5806 5808 5811 5811 5811 5813 5815 5817 5817 5816 5815 5815 5815 5816 5815
5615 5619 5623 5626 5629 5633 5636 5639 5642 5644 5644 5644 5648 5656 5662 5665 5669 5673 5675 5678 5681 5683 5684 5687 5691 5696 5698 5702 5707 5710 5713 5715 5716 5720 5723 5725 5729 5734 5738 5740 5742 5744 5747 5749 5748 5750 5753 5754 5757 5760 5762 5764 5765 5766 5768 5772 5774 5775 5778 5780 5780 5780 5781 5782 5783 5785 5787 5786 5789 5795 5797 5799 5803 5803 5804 5806 5806 5806 5807 5808 5809 5810 5809 5810 5811 5811 5811 5811
5608 5613 5617 5619 5623 5626 5630 5634 5637 5638 5639 5640 5644 5652 5658 5661 5665 5667 5670 5673 5675 5677 5679 5681 5686 5691 5693 5697 5702 5705 5707 5710 5712 5716 5718 5721 5725 5730 5733 5735 5737 5740 5741 5742 5743 5745 5746 5748 5750 5754 5757 5757 5758 5761 5765 5767 5768 5770 5772 5773 5774 5775 5775 5776 5777 5779 5781 5781 5783 5789 5790 5793 5800 5802 5800 5800 5801 5801 5801 5801 5801 5802 5802 5804 5805 5805 5805 5805
5601 5606 5609 5613 5617 5620 5624 5629 5630 5631 5633 5636 5642 5649 5654 5657 5658 5660 5664 5668 5670 5672 5674 5677 5681 5685 5688 5693 5696 5699 5702 5705 5707 5710 5713 5716 5720 5724 5727 5728 5731 5734 5735 5735 5737 5738 5738 5740 5744 5747 5749 5750 5753 5758 5761 5761 5761 5764 5766 5767 5769 5770 5770 5770 5771 5772 5775 5776 5778 5780 5782 5788 5797 5799 5796 5795 5795 5796 5796 5795 5795 5795 5795 5796 5797 5798 5798 5798
5595 5599 5602 5606 5610 5613 5618 5621 5622 5624 5628 5633 5639 5645 5649 5651 5652 5655 5658 5662 5665 5667 5669 5673 5676 5680 5683 5687 5690 5693 5697 5699 5702 5705 5707 5710 5714 5717 5719 5722 5725 5727 5728 5728 5730 5732 5732 5733 5737 5739 5741 5746 5750 5752 5753 5753 5754 5757 5759 5760 5763 5764 5763 5763 5763 5765 5768 5769 5771 5772 5774 5783 5793 5794 5793 5792 5790 5790 5789 5788 5788 5788 5788 5789 5790 5790 5790 5791
5590 5593 5596 5599 5602 5606 5610 5612 5615 5619 5624 5630 5635 5640 5643 5645 5648 5650 5653 5656 5659 5661 5664 5668 5671 5674 5677 5681 5684 5688 5691 5693 5696 5699 5701 5705 5708 5710 5712 5716 5718 5720 5721 5722 5724 5726 5726 5727 5730 5732 5736 5741 5743 5742 5743 5745 5747 5749 5751 5754 5756 5756 5755 5756 5756 5759 5760 5761 5765 5765 5765 5778 5789 5790 5790 5788 5785 5784 5782 5781 5782 5781 5782 5782 5781 5781 5781 5782
5583 5587 5590 5592 5594 5598 5601 5604 5608 5614 5621 5628 5631 5634 5636 5639 5643 5646 5648 5651 5653 5656 5660 5663 5666 5669 5671 5674 5678 5681 5684 5687 5689 5693 5696 5700 5701 5703 5706 5709 5711 5713 5714 5716 5717 5719 5720 5720 5723 5726 5729 5732 5734 5733 5736 5738 5740 5742 5745 5748 5749 5748 5750 5749 5749 5752 5751 5752 5759 5757 5757 5772 5784 5785 5786 5784 5780 5778 5776 5777 5778 5776 5775 5774 5773 5772 5772 5773
5576 5580 5583 5585 5588 5590 5594 5599 5605 5610 5617 5621 5624 5627 5630 5633 5637 5640 5643 5646 5649 5652 5655 5658 5661 5664 5666 5669 5672 5675 5678 5680 5683 5687 5691 5693 5696 5699 5702 5704 5706 5707 5708 5710 5711 5712 5714 5715 5717 5720 5721 5724 5726 5727 5729 5731 5733 5736 5739 5742 5743 5743 5743 5741 5742 5744 5742 5746 5753 5748 5749 5768 5780 5780 5780 5779 5775 5772 5770 5772 5774 5771 5769 5768 5766 5764 5764 5765
5570 5573 5576 5578 5581 5584 5589 5595 5600 5604 5608 5612 5616 5622 5625 5627 5631 5635 5638 5640 5643 5647 5650 5652 5656 5659 5661 5664 5666 5668 5671 5674 5678 5682 5685 5688 5691 5693 5696 5698 5699 5701 5702 5705 5705 5706 5708 5708 5710 5713 5714 5716 5720 5721 5723 5727 5728 5729 5733 5736 5737 5738 5736 5736 5737 5735 5735 5743 5747 5740 5743 5762 5773 5773 5772 5772 5769 5765 5763 5766 5768 5766 5765 5763 5761 5758 5757 5757
5564 5567 5570 5573 5575 5579 5584 5590 5593 5597 5601 5605 5610 5614 5617 5621 5625 5630 5633 5634 5637 5642 5644 5647 5651 5654 5655 5658 5660 5662 5666 5670 5673 5675 5680 5683 5685 5687 5690 5691 5693 5694 5696 5698 5699 5699 5701 5702 5704 5706 5708 5712 5715 5714 5717 5721 5721 5721 5726 5729 5729 5729 5729 5730 5729 5727 5732 5737 5736 5735 5741 5751 5761 5766 5766 5766 5763 5757 5757 5760 5759 5759 5760 5758 5756 5753 5751 5749
5559 5562 5566 5568 5570 5574 5578 5582 5586 5591 5595 5597 5601 5606 5610 5614 5618 5621 5625 5628 5632 5636 5638 5640 5643 5646 5649 5653 5656 5657 5661 5664 5665 5668 5674 5677 5678 5680 5682 5685 5687 5688 5689 5691 5691 5693 5695 5696 5698 5701 5704 5707 5708 5707 5711 5714 5714 5715 5719 5720 5721 5721 5721 5722 5722 5725 5731 5728 5725 5734 5739 5738 5746 5757 5759 5759 5755 5750 5752 5754 5751 5751 5753 5751 5749 5747 5745 5743
5554 5558 5561 5562 5564 5568 5572 5576 5581 5585 5587 5589 5593 5598 5601 5604 5609 5614 5618 5623 5626 5628 5630 5632 5636 5641 5646 5649 5649 5651 5655 5656 5657 5662 5667 5669 5671 5673 5676 5679 5680 5681 5683 5684 5684 5687 5689 5690 5694 5697 5699 5702 5703 5702 5705 5708 5708 5709 5711 5713 5713 5713 5714 5715 5718 5723 5725 5718 5719 5731 5732 5726 5735 5747 5751 5752 5748 5744 5747 5748 5745 5744 5743 5742 5740 5738 5737 5737
5550 5552 5555 5556 5558 5563 5567 5571 5574 5576 5578 5582 5586 5590 5593 5598 5604 5609 5613 5615 5617 5620 5623 5626 5632 5637 5640 5641 5642 5644 5647 5649 5653 5658 5661 5663 5665 5667 5670 5672 5673 5676 5678 5678 5679 5681 5682 5685 5689 5691 5692 5695 5698 5698 5700 5701 5700 5701 5703 5704 5705 5706 5708 5711 5713 5716 5715 5711 5714 5723 5722 5720 5729 5737 5740 5743 5741 5737 5738 5739 5739 5739 5736 5733 5731 5729 5729 5730
5545 5547 5548 5550 5553 5558 5560 5563 5566 5568 5571 5574 5578 5583 5588 5593 5598 5602 5604 5606 5609 5614 5617 5622 5628 5631 5631 5632 5634 5636 5640 5645 5649 5652 5654 5656 5659 5661 5663 5665 5667 5670 5671 5673 5674 5675 5676 5678 5682 5683 5682 5686 5692 5695 5693 5693 5693 5693 5694 5696 5698 5700 5704 5705 5707 5709 5707 5705 5711 5714 5711 5715 5725 5728 5727 5733 5733 5729 5728 5730 5733 5734 5730 5725 5721 5719 5721 5724
5538 5540 5541 5544 5548 5551 5553 5556 5559 5561 5564 5567 5573 5580 5584 5587 5592 5594 5595 5598 5603 5607 5611 5617 5622 5622 5621 5622 5625 5630 5636 5639 5641 5643 5645 5647 5650 5654 5655 5657 5661 5663 5664 5667 5667 5668 5670 5672 5675 5677 5674 5679 5688 5689 5686 5686 5685 5683 5685 5691 5695 5696 5697 5699 5701 5701 5701 5701 5704 5703 5700 5707 5719 5719 5715 5720 5724 5721 5721 5723 5725 5726 5723 5716 5711 5711 5715 5717
5532 5533 5535 5538 5542 5544 5546 5550 5552 5554 5559 5565 5571 5577 5578 5581 5585 5585 5585 5590 5596 5600 5605 5609 5610 5610 5611 5614 5620 5626 5630 5630 5632 5635 5638 5639 5641 5645 5646 5649 5653 5655 5657 5659 5660 5662 5665 5665 5668 5670 5667 5674 5683 5681 5678 5677 5670 5671 5684 5693 5694 5693 5692 5692 5692 5693 5695 5696 5694 5692 5694 5701 5708 5707 5706 5710 5714 5714 5715 5716 5718 5718 5713 5706 5704 5709 5710 5708